| time (UTC) | temp C | wind direction | speed KPH | gust KPH | rain 1hr cm | rain 24hr cm | rain mn cm | humidity % | barometer mb |
| 20260502151610 | 26 | 286 | 0.0 | 6.4 | 0.00 | 0.00 | 0.00 | 23 | 1017.5 |
| 20260502123025 | 24 | 267 | 0.0 | 4.8 | 0.00 | 0.00 | 0.00 | 26 | 1019.7 |
| 20260502121529 | 23 | 220 | 0.0 | 3.2 | 0.00 | 0.00 | 0.00 | 26 | 1019.9 |
| 20260502114518 | 23 | 274 | 0.0 | 3.2 | 0.00 | 0.00 | 0.00 | 28 | 1020.3 |
| 20260502113016 | 23 | 274 | 0.0 | 4.8 | 0.00 | 0.00 | 0.00 | 31 | 1020.7 |
| 20260502111511 | 23 | 218 | 0.0 | 3.2 | 0.00 | 0.00 | 0.00 | 34 | 1020.8 |
| 20260502110010 | 22 | 88 | 1.6 | 4.8 | 0.00 | 0.00 | 0.00 | 38 | 1021.0 |
| 20260502104508 | 22 | 269 | 1.6 | 6.4 | 0.00 | 0.00 | 0.00 | 34 | 1021.1 |
| 20260502103007 | 22 | 275 | 0.0 | 3.2 | 0.00 | 0.00 | 0.00 | 37 | 1021.3 |
| 20260502101502 | 21 | 277 | 0.0 | 4.8 | 0.00 | 0.00 | 0.00 | 38 | 1021.5 |
| 20260502071532 | 16 | 90 | 1.6 | 8.0 | 0.00 | 0.00 | 0.00 | 51 | 1022.6 |
| 20260502070045 | 15 | 86 | 1.6 | 4.8 | 0.00 | 0.00 | 0.00 | 52 | 1022.5 |
| 20260502064525 | 15 | 80 | 0.0 | 8.0 | 0.00 | 0.00 | 0.00 | 53 | 1022.8 |
| 20260502063031 | 14 | 82 | 0.0 | 6.4 | 0.00 | 0.00 | 0.00 | 55 | 1022.7 |
| 20260502061524 | 13 | 88 | 0.0 | 4.8 | 0.00 | 0.00 | 0.00 | 57 | 1022.6 |
| 20260502060035 | 13 | 90 | 0.0 | 1.6 | 0.00 | 0.00 | 0.00 | 58 | 1022.8 |
| 20260502054537 | 11 | 90 | 0.0 | 1.6 | 0.00 | 0.00 | 0.00 | 63 | 1022.9 |
| 20260502053022 | 10 | 90 | 0.0 | 1.6 | 0.00 | 0.00 | 0.00 | 68 | 1022.9 |
| 20260502051522 | 8 | 90 | 0.0 | 0.0 | 0.00 | 0.00 | 0.00 | 72 | 1022.9 |
| 20260502050025 | 7 | 90 | 0.0 | 1.6 | 0.00 | 0.00 | 0.00 | 73 | 1022.9 |
| 20260502044521 | 7 | 90 | 0.0 | 0.0 | 0.00 | 0.00 | 0.00 | 74 | 1022.8 |
| 20260502043020 | 7 | 90 | 0.0 | 0.0 | 0.00 | 0.00 | 0.00 | 73 | 1022.8 |
| 20260502041531 | 7 | 90 | 0.0 | 0.0 | 0.00 | 0.00 | 0.00 | 72 | 1022.8 |
| 20260502040042 | 7 | 90 | 0.0 | 1.6 | 0.00 | 0.00 | 0.00 | 73 | 1022.6 |
| 20260502034518 | 7 | 90 | 0.0 | 1.6 | 0.00 | 0.00 | 0.00 | 73 | 1022.6 |
| 20260502033027 | 7 | 90 | 0.0 | 1.6 | 0.00 | 0.00 | 0.00 | 73 | 1022.7 |
| 20260502031514 | 7 | 90 | 0.0 | 1.6 | 0.00 | 0.00 | 0.00 | 72 | 1022.8 |
| 20260502030013 | 7 | 90 | 0.0 | 0.0 | 0.00 | 0.00 | 0.00 | 72 | 1022.9 |
| 20260502024512 | 7 | 90 | 0.0 | 0.0 | 0.00 | 0.00 | 0.00 | 71 | 1023.0 |
| 20260502023020 | 8 | 90 | 0.0 | 0.0 | 0.00 | 0.00 | 0.00 | 70 | 1023.1 |
| 20260502021506 | 8 | 90 | 0.0 | 0.0 | 0.00 | 0.00 | 0.00 | 68 | 1023.2 |
| 20260502020003 | 8 | 90 | 0.0 | 0.0 | 0.00 | 0.00 | 0.00 | 67 | 1023.2 |
| 20260502014607 | 9 | 90 | 0.0 | 0.0 | 0.00 | 0.00 | 0.00 | 65 | 1023.3 |
| 20260502013101 | 10 | 90 | 0.0 | 0.0 | 0.00 | 0.00 | 0.00 | 63 | 1023.3 |
| 20260502011605 | 10 | 90 | 0.0 | 0.0 | 0.00 | 0.00 | 0.00 | 60 | 1023.4 |
| 20260502010049 | 11 | 90 | 0.0 | 0.0 | 0.00 | 0.00 | 0.00 | 58 | 1023.4 |
| 20260502004546 | 12 | 90 | 0.0 | 0.0 | 0.00 | 0.00 | 0.00 | 55 | 1023.5 |
| 20260502003043 | 12 | 90 | 0.0 | 0.0 | 0.00 | 0.00 | 0.00 | 52 | 1023.6 |
| 20260502001544 | 13 | 90 | 0.0 | 3.2 | 0.00 | 0.00 | 0.00 | 51 | 1023.5 |
| 20260502000055 | 13 | 95 | 0.0 | 3.2 | 0.00 | 0.00 | 0.00 | 51 | 1023.7 |
| 20260501234538 | 13 | 78 | 0.0 | 1.6 | 0.00 | 0.00 | 0.00 | 50 | 1023.9 |
| 20260501233046 | 13 | 79 | 0.0 | 4.8 | 0.00 | 0.00 | 0.00 | 49 | 1023.8 |
| 20260501231533 | 13 | 79 | 0.0 | 4.8 | 0.00 | 0.00 | 0.00 | 48 | 1023.9 |
| 20260501230105 | 13 | 90 | 0.0 | 8.0 | 0.00 | 0.00 | 0.00 | 48 | 1023.9 |
| 20260501224530 | 14 | 84 | 0.0 | 6.4 | 0.00 | 0.00 | 0.00 | 47 | 1023.8 |
| 20260501223029 | 15 | 88 | 1.6 | 11.3 | 0.00 | 0.00 | 0.00 | 46 | 1023.8 |
| 20260501221526 | 15 | 78 | 1.6 | 6.4 | 0.00 | 0.00 | 0.00 | 46 | 1023.8 |
| 20260501220025 | 15 | 96 | 1.6 | 8.0 | 0.00 | 0.00 | 0.00 | 46 | 1023.8 |
| 20260501214525 | 15 | 91 | 1.6 | 9.7 | 0.00 | 0.00 | 0.00 | 45 | 1023.7 |
| 20260501213028 | 15 | 92 | 3.2 | 12.9 | 0.00 | 0.00 | 0.00 | 45 | 1023.7 |
| 20260501211524 | 15 | 79 | 3.2 | 12.9 | 0.00 | 0.00 | 0.00 | 45 | 1023.7 |
| 20260501210023 | 15 | 102 | 1.6 | 8.0 | 0.00 | 0.00 | 0.00 | 46 | 1023.7 |
| 20260501204523 | 15 | 80 | 1.6 | 11.3 | 0.00 | 0.00 | 0.00 | 45 | 1023.8 |
| 20260501203026 | 15 | 80 | 0.0 | 4.8 | 0.00 | 0.00 | 0.00 | 46 | 1023.9 |
| 20260501201522 | 15 | 91 | 0.0 | 4.8 | 0.00 | 0.00 | 0.00 | 48 | 1023.9 |
| 20260501200021 | 15 | 84 | 0.0 | 3.2 | 0.00 | 0.00 | 0.00 | 47 | 1023.9 |
| 20260501194522 | 15 | 86 | 0.0 | 1.6 | 0.00 | 0.00 | 0.00 | 47 | 1023.8 |
| 20260501193020 | 16 | 86 | 0.0 | 1.6 | 0.00 | 0.00 | 0.00 | 45 | 1023.7 |
| 20260501191519 | 16 | 86 | 0.0 | 0.0 | 0.00 | 0.00 | 0.00 | 43 | 1023.7 |
| 20260501190019 | 17 | 86 | 0.0 | 0.0 | 0.00 | 0.00 | 0.00 | 42 | 1023.6 |
| 20260501184522 | 17 | 86 | 0.0 | 1.6 | 0.00 | 0.00 | 0.00 | 40 | 1023.5 |
| 20260501183019 | 18 | 85 | 0.0 | 4.8 | 0.00 | 0.00 | 0.00 | 38 | 1023.4 |
| 20260501181517 | 18 | 80 | 0.0 | 4.8 | 0.00 | 0.00 | 0.00 | 37 | 1023.3 |
| 20260501180017 | 19 | 105 | 3.2 | 9.7 | 0.00 | 0.00 | 0.00 | 35 | 1023.3 |
| 20260501174517 | 19 | 84 | 1.6 | 6.4 | 0.00 | 0.00 | 0.00 | 35 | 1023.2 |
| 20260501173024 | 20 | 87 | 1.6 | 12.9 | 0.00 | 0.00 | 0.00 | 33 | 1023.3 |
| 20260501171521 | 20 | 92 | 0.0 | 8.0 | 0.00 | 0.00 | 0.00 | 32 | 1023.3 |
| 20260501170014 | 20 | 83 | 3.2 | 14.5 | 0.00 | 0.00 | 0.00 | 32 | 1023.4 |
| 20260501164514 | 21 | 81 | 3.2 | 8.0 | 0.00 | 0.00 | 0.00 | 31 | 1023.5 |
| 20260501163013 | 21 | 68 | 1.6 | 11.3 | 0.00 | 0.00 | 0.00 | 30 | 1023.6 |
| 20260501161513 | 21 | 30 | 1.6 | 8.0 | 0.00 | 0.00 | 0.00 | 30 | 1023.6 |
| 20260501160012 | 22 | 86 | 1.6 | 6.4 | 0.00 | 0.00 | 0.00 | 30 | 1023.7 |
| 20260501154510 | 22 | 93 | 0.0 | 8.0 | 0.00 | 0.00 | 0.00 | 29 | 1023.6 |